This demonstration page uses our WeatherBlox Daily Observations layout. Learn more.

Left ArrowRight Arrow

36.17497, -115.13722

Hourly Observations for May 6, 2016

Temp ( °F °C ) Dew Point ( °F °C ) Humidity (%) Winds ( mph kmh ) Pressure ( in mb ) Visibility ( mi km ) Precip ( " mm )
12:53 am 00:53 Clear 68 20 37 2.8 32 32 SSW 9 15 29.67 1005 10 16 N/A
1:53 am 01:53 Clear 67 19.4 37 2.8 33 33 SSW 13 20 29.67 1005 10 16 N/A
2:53 am 02:53 Clear 65 18.3 38 3.3 37 37 SSW 10 17 29.67 1005 10 16 N/A
3:53 am 03:53 Clear 62 16.7 39 3.9 43 43 SSE 7 11 29.69 1006 10 16 N/A
4:53 am 04:53 Clear 61 16.1 39 3.9 44 44 ENE 7 11 29.71 1006 10 16 N/A
5:53 am 05:53 Mostly Sunny 61 16.1 39 3.9 44 44 S 3 6 29.73 1007 10 16 N/A
6:53 am 06:53 Mostly Cloudy 62 16.7 39 3.9 43 43 SSW 12 19 29.74 1007 10 16 N/A
7:53 am 07:53 Cloudy with Light Rain 58 14.4 47 8.3 67 67 W 6 9 29.77 1008 9 14 0.25 6.35
8:53 am 08:53 Cloudy with Light Rain 57 13.9 48 8.9 72 72 N N/A 29.80 1009 9 14 0.01 0.25
9:53 am 09:53 Cloudy 57 13.9 51 10.6 81 81 NE 6 9 29.81 1010 10 16 0.01 0.25
10:53 am 10:53 Sunny 60 15.6 49 9.4 67 67 NNW 7 11 29.82 1010 10 16 N/A
11:53 am 11:53 Sunny 65 18.3 45 7.2 49 49 VRB 5 7 29.81 1010 10 16 N/A
12:53 pm 12:53 Sunny 65 18.3 44 6.7 47 47 N N/A 29.80 1009 10 16 N/A
1:53 pm 13:53 Partly Cloudy 66 18.9 41 5 40 40 N N/A 29.80 1009 10 16 N/A
2:53 pm 14:53 Mostly Sunny 65 18.3 44 6.7 47 47 SSE 22 35 29.80 1009 10 16 N/A
3:53 pm 15:53 Mostly Cloudy 64 17.8 41 5 43 43 SSE 20 31 29.81 1010 10 16 N/A
4:53 pm 16:53 Mostly Cloudy 63 17.2 43 6.1 48 48 S 6 9 29.82 1010 10 16 N/A
5:53 pm 17:53 Mostly Cloudy 63 17.2 39 3.9 41 41 SW 9 15 29.82 1010 10 16 N/A
6:53 pm 18:53 Mostly Cloudy 62 16.7 39 3.9 43 43 SSW 7 11 29.81 1010 10 16 N/A
7:53 pm 19:53 Clear 61 16.1 41 5 48 48 SSE 6 9 29.83 1010 10 16 N/A
8:53 pm 20:53 Mostly Cloudy 59 15 45 7.2 60 60 ESE 7 11 29.85 1011 10 16 N/A
9:53 pm 21:53 Cloudy 60 15.6 44 6.7 56 56 ESE 5 7 29.86 1011 10 16 N/A
10:53 pm 22:53 Cloudy 60 15.6 45 7.2 58 58 N N/A 29.87 1011 10 16 N/A
11:53 pm 23:53 Cloudy 59 15 47 8.3 64 64 ENE 3 6 29.85 1011 10 16 N/A

Powered by AerisWeather